Weather History for Roxboro, NC

Change the Weather History Date:

Saturday, March 9, 2013

  Actual Average Record
Temperature  
Mean Temperature 43 °F -  
Max Temperature 60 °F 57 °F 80 °F (1974)
Min Temperature 26 °F 32 °F 14 °F (1986)
Degree Days  
Heating Degree Days 22    
Moisture  
Dew Point 27 °F    
Average Humidity 60    
Maximum Humidity 100    
Minimum Humidity 23    
Precipitation  
Precipitation 0.00 in - - ()
Sea Level Pressure  
Sea Level Pressure 30.30 in    
Wind  
Wind Speed 2 mph (NNE)    
Max Wind Speed 9 mph    
Max Gust Speed -    
Visibility 10 miles    
Events      
Averages and records for this station are not official NWS values.
T = Trace of Precipitation, MM = Missing Value Source: NWS Daily Summary

Daily Weather History Graph

Daily Weather History Graph

Search for Another Location

Airport:

Trip Planner

Search our weather history database for the weather conditions in past years. The results will help you decide how hot, cold, wet, or windy it might be!

Date:

Astronomy

Mar. 09, 2013 Rise Set
Actual Time 6:34 AM EST 6:18 PM EST
Civil Twilight 6:09 AM EST 6:43 PM EST
Nautical Twilight 5:39 AM EST 7:13 PM EST
Astronomical Twilight 5:09 AM EST 7:43 PM EST
Moon 4:54 AM EST (3/9) 4:20 PM EST (3/9)
Length of Visible Light 12h 34m
Length of Day
11h 43m
Waning Crescent, 5% of the Moon is Illuminated
Mar 9
Waning Crescent
Mar 11
New
Mar 19
First Quarter
Mar 27
Full
Apr 3
Last Quarter

Hourly Weather History & Observations

Time (EST) Temp. Windchill Dew Point Humidity Pressure Visibility Wind Dir Wind Speed Gust Speed Precip Events Conditions
12:15 AM 37.4 °F 32.8 °F 26.6 °F 65% 30.30 in 10.0 mi NNW 5.8 mph - N/A   Clear
12:35 AM 37.4 °F - 26.6 °F 65% 30.30 in 10.0 mi Calm Calm - N/A   Clear
12:55 AM 37.4 °F - 26.6 °F 65% 30.31 in 10.0 mi Calm Calm - N/A   Clear
1:15 AM 35.6 °F - 26.6 °F 70% 30.31 in 10.0 mi Calm Calm - N/A   Clear
1:35 AM 35.6 °F - 26.6 °F 70% 30.32 in 10.0 mi Calm Calm - N/A   Clear
1:55 AM 35.6 °F 31.7 °F 26.6 °F 70% 30.31 in 10.0 mi NNW 4.6 mph - N/A   Clear
2:15 AM 35.6 °F 32.8 °F 26.6 °F 70% 30.30 in 10.0 mi NNW 3.5 mph - N/A   Clear
2:35 AM 35.6 °F 32.8 °F 26.6 °F 70% 30.29 in 10.0 mi NNW 3.5 mph - N/A   Clear
2:55 AM 33.8 °F - 26.6 °F 75% 30.28 in 10.0 mi Calm Calm - N/A   Clear
3:15 AM 33.8 °F - 26.6 °F 75% 30.28 in 10.0 mi Calm Calm - N/A   Clear
3:35 AM 33.8 °F - 26.6 °F 75% 30.28 in 10.0 mi Calm Calm - N/A   Clear
3:55 AM 33.8 °F - 26.6 °F 75% 30.28 in 10.0 mi Calm Calm - N/A   Clear
4:15 AM 30.2 °F - 26.6 °F 86% 30.29 in 10.0 mi Calm Calm - N/A   Clear
4:35 AM 30.2 °F - 26.6 °F 86% 30.30 in 10.0 mi Calm Calm - N/A   Clear
4:55 AM 30.2 °F - 26.6 °F 86% 30.30 in 10.0 mi Calm Calm - N/A   Clear
5:15 AM 28.4 °F - 26.6 °F 93% 30.30 in 10.0 mi Calm Calm - N/A   Clear
5:35 AM 28.4 °F - 26.6 °F 93% 30.30 in 10.0 mi Calm Calm - N/A   Clear
5:55 AM 28.4 °F - 26.6 °F 93% 30.30 in 10.0 mi Calm Calm - N/A   Clear
6:15 AM 28.4 °F - 26.6 °F 93% 30.30 in 10.0 mi Calm Calm - N/A   Clear
6:35 AM 28.4 °F - 26.6 °F 93% 30.31 in 10.0 mi Calm Calm - N/A   Clear
6:55 AM 26.6 °F - 24.8 °F 93% 30.31 in 10.0 mi Calm Calm - N/A   Clear
7:15 AM 28.4 °F - 26.6 °F 93% 30.32 in 10.0 mi Calm Calm - N/A   Clear
7:35 AM 30.2 °F - 28.4 °F 93% 30.33 in 10.0 mi Calm Calm - N/A   Clear
7:55 AM 35.6 °F - 28.4 °F 75% 30.34 in 10.0 mi Calm Calm - N/A   Clear
8:15 AM 37.4 °F 33.8 °F 28.4 °F 70% 30.34 in 10.0 mi NNW 4.6 mph - N/A   Clear
8:35 AM 41.0 °F 37.1 °F 28.4 °F 61% 30.35 in 10.0 mi NNW 5.8 mph - N/A   Clear
8:55 AM 42.8 °F 41.1 °F 28.4 °F 57% 30.35 in 10.0 mi NNW 3.5 mph - N/A   Clear
9:15 AM 44.6 °F 43.1 °F 28.4 °F 53% 30.36 in 10.0 mi North 3.5 mph - N/A   Clear
9:35 AM 44.6 °F 40.7 °F 26.6 °F 49% 30.36 in 10.0 mi North 6.9 mph - N/A   Clear
9:55 AM 46.4 °F 43.5 °F 26.6 °F 46% 30.36 in 10.0 mi North 5.8 mph - N/A   Clear
10:15 AM 46.4 °F 42.4 °F 26.6 °F 46% 30.35 in 10.0 mi North 8.1 mph - N/A   Clear
10:35 AM 48.2 °F - 26.6 °F 43% 30.35 in 10.0 mi North 8.1 mph - N/A   Clear
10:55 AM 50.0 °F - 26.6 °F 40% 30.34 in 10.0 mi North 3.5 mph - N/A   Clear
11:15 AM 51.8 °F - 26.6 °F 38% 30.34 in 10.0 mi North 5.8 mph - N/A   Clear
11:35 AM 51.8 °F - 26.6 °F 38% 30.34 in 10.0 mi NE 4.6 mph - N/A   Clear
11:55 AM 53.6 °F - 28.4 °F 38% 30.33 in 10.0 mi Calm Calm - N/A   Clear
12:15 PM 53.6 °F - 26.6 °F 35% 30.32 in 10.0 mi Calm Calm - N/A   Clear
12:35 PM 55.4 °F - 26.6 °F 33% 30.32 in 10.0 mi North 6.9 mph - N/A   Clear
12:55 PM 55.4 °F - 24.8 °F 31% 30.32 in 10.0 mi NNE 6.9 mph - N/A   Clear
1:15 PM 57.2 °F - 26.6 °F 31% 30.30 in 10.0 mi East 4.6 mph - N/A   Clear
1:35 PM 57.2 °F - 24.8 °F 29% 30.30 in 10.0 mi NNE 4.6 mph - N/A   Clear
1:55 PM 59.0 °F - 23.0 °F 25% 30.29 in 10.0 mi North 4.6 mph - N/A   Clear
2:15 PM 59.0 °F - 24.8 °F 27% 30.29 in 10.0 mi NE 9.2 mph - N/A   Unknown
2:35 PM 59.0 °F - 23.0 °F 25% 30.28 in 10.0 mi East 4.6 mph - N/A   Clear
2:55 PM 59.0 °F - 23.0 °F 25% 30.27 in 10.0 mi ENE 4.6 mph - N/A   Clear
3:15 PM 60.8 °F - 23.0 °F 23% 30.27 in 10.0 mi North 5.8 mph - N/A   Clear
3:35 PM 60.8 °F - 23.0 °F 23% 30.26 in 10.0 mi NNE 5.8 mph - N/A   Clear
3:55 PM 60.8 °F - 23.0 °F 23% 30.26 in 10.0 mi NNE 4.6 mph - N/A   Clear
4:15 PM 59.0 °F - 21.2 °F 23% 30.26 in 10.0 mi Calm Calm - N/A   Clear
4:35 PM 60.8 °F - 23.0 °F 23% 30.26 in 10.0 mi North - - N/A   Clear
4:55 PM 59.0 °F - 23.0 °F 25% 30.26 in 10.0 mi NNE 3.5 mph - N/A   Clear
5:15 PM 59.0 °F - 23.0 °F 25% 30.26 in 10.0 mi NE 3.5 mph - N/A   Clear
5:35 PM 59.0 °F - 24.8 °F 27% 30.26 in 10.0 mi ENE 4.6 mph - N/A   Clear
5:55 PM 57.2 °F - 24.8 °F 29% 30.27 in 10.0 mi ENE 3.5 mph - N/A   Clear
6:15 PM 51.8 °F - 28.4 °F 41% 30.27 in 10.0 mi Calm Calm - N/A   Clear
6:35 PM 50.0 °F - 28.4 °F 43% 30.27 in 10.0 mi Calm Calm - N/A   Clear
6:55 PM 46.4 °F - 30.2 °F 53% 30.28 in 10.0 mi Calm Calm - N/A   Clear
7:15 PM 44.6 °F - 32.0 °F 61% 30.29 in 10.0 mi Calm Calm - N/A   Clear
7:35 PM 42.8 °F - 32.0 °F 66% 30.29 in 10.0 mi Calm Calm - N/A   Clear
7:55 PM 41.0 °F - 30.2 °F 65% 30.29 in 10.0 mi Calm Calm - N/A   Clear
8:15 PM 41.0 °F - 32.0 °F 70% 30.29 in 10.0 mi Calm Calm - N/A   Clear
8:35 PM 39.2 °F - 32.0 °F 75% 30.29 in 10.0 mi Calm Calm - N/A   Clear
8:55 PM 37.4 °F - 30.2 °F 75% 30.30 in 10.0 mi Calm Calm - N/A   Clear
9:15 PM 37.4 °F - 32.0 °F 81% 30.30 in 10.0 mi Calm Calm - N/A   Clear
9:35 PM 37.4 °F - 30.2 °F 75% 30.30 in 10.0 mi Calm Calm - N/A   Clear
9:55 PM 35.6 °F - 30.2 °F 81% 30.30 in 10.0 mi Calm Calm - N/A   Clear
10:15 PM 35.6 °F - 32.0 °F 87% 30.31 in 10.0 mi Calm Calm - N/A   Clear
10:35 PM 35.6 °F - 32.0 °F 87% 30.30 in 10.0 mi Calm Calm - N/A   Clear
10:55 PM 33.8 °F - 32.0 °F 93% 30.30 in 10.0 mi Calm Calm - N/A   Clear
11:15 PM 32.0 °F - 32.0 °F 100% 30.30 in 10.0 mi Calm Calm - N/A   Clear
11:35 PM 32.0 °F - 32.0 °F 100% 30.31 in 10.0 mi Calm Calm - N/A   Clear
11:55 PM 32.0 °F - 32.0 °F 100% 30.31 in 10.0 mi Calm Calm - N/A   Clear